Voltar ao catálogo

THORAD AGENA D DEB

AtivoSSO
NORAD 19290·DEBRIS·🇺🇸 United States

Lançado Apr 8, 1970 de Vandenberg Space Force Base

Loading…

Próximas Passagens (próximas 24 horas)

TLE

AtualizadoSource: Space-Track

Época: Sep 14, 2026, 19:35 UTC

1 19290U 70025PV  26257.81618525  .00000210  00000-0  34616-3 0  9999
2 19290  99.9022 209.4584 0027878   7.5420  21.9815 13.59207908 50685

Acompanhe THORAD AGENA D DEB em tempo real com AllMySat

Download on the App Store